Simultaneous Nadir Overpasses (SNOs) Predictions

Prediction of SNOs between AURA and NPP Satellite Orbit:

Table of predicted SNOs for the next 14.0 days since TLE Epoch: 7/9/2022
Index Date (AURA) Time (AURA) Lat,Lon (AURA) SZA (AURA ) Date (NPP) Time (NPP) Lat,Lon (NPP) SZA (NPP ) Distance(km) Time Diff (sec)
1 07/09/2022 19:09:04 -79.27, -31.94 108.95 07/09/2022 19:08:04 -79.27, -31.95 108.91 0.10 60
2 07/09/2022 19:58:24 79.50, 137.22 70.72 07/09/2022 19:58:42 79.49, 137.09 70.73 2.70 18
3 07/12/2022 11:25:30 -79.34, 84.42 108.70 07/12/2022 11:25:00 -79.34, 84.33 108.66 2.11 30
4 07/12/2022 12:14:48 79.64,-105.88 70.87 07/12/2022 12:15:35 79.65,-105.79 70.82 1.91 47
5 07/15/2022 03:41:55 -79.44,-159.03 108.44 07/15/2022 03:41:55 -79.43,-159.14 108.42 2.34 0
6 07/17/2022 19:08:58 79.28, 148.17 72.24 07/17/2022 19:08:11 79.27, 148.05 72.30 2.72 47
7 07/17/2022 19:58:18 -79.56, -42.30 108.17 07/17/2022 19:58:48 -79.56, -42.33 108.19 0.74 30
8 07/20/2022 11:25:21 79.43, -94.96 72.51 07/20/2022 11:25:04 79.43, -94.93 72.51 0.75 17
9 07/20/2022 12:14:41 -79.71, 74.64 107.91 07/20/2022 12:15:41 -79.71, 74.77 107.98 2.71 60



Historial Predications of SNOs between AURA and NPP
